This is the latest recevied weather packets stored in our database for station/object KHRO. If no packets are shown the sender has not sent any weather packets the latest 1 day(s).
| Time | Temp. | Humidity | Pressure | Rain* | Wind** | Luminosity | Snow |
|---|---|---|---|---|---|---|---|
| 1836274580 | 21.67° C | 68% | 1018.3 hPa | - | 2.68 m/s, 130° | - | - |
| 1836274432 | 21.67° C | 68% | 1018.3 hPa | - | 2.68 m/s, 130° | - | - |
| 1836273980 | 21.67° C | 68% | 1018.3 hPa | - | 2.68 m/s, 130° | - | - |
| 1778031212 | 8.89° C | 93% | 1009.5 hPa | - | 4.02 m/s, 350° | - | - |
| 1778030610 | 8.89° C | 93% | 1009.5 hPa | - | 4.02 m/s, 350° | - | - |
| 1778030012 | 8.89° C | 93% | 1009.5 hPa | - | 4.02 m/s, 350° | - | - |
| 1778029410 | 8.89° C | 93% | 1009.5 hPa | - | 4.02 m/s, 350° | - | - |
| 1778028813 | 10.56° C | 87% | 1008.5 hPa | - | 3.58 m/s, 360° | - | - |
| 1778028211 | 10.56° C | 87% | 1008.5 hPa | - | 3.58 m/s, 360° | - | - |
| 1778027610 | 10.56° C | 87% | 1008.5 hPa | - | 3.58 m/s, 360° | - | - |
| 1778027009 | 10.56° C | 87% | 1008.5 hPa | - | 3.58 m/s, 360° | - | - |
| 1778026415 | 10.56° C | 87% | 1008.5 hPa | - | 4.02 m/s, 10° | - | - |
| 1778025813 | 10.56° C | 87% | 1008.5 hPa | - | 4.02 m/s, 10° | - | - |
| 1778025214 | 10.56° C | 87% | 1008.1 hPa | - | 4.92 m/s, 10° | - | - |
| 1778024609 | 10.56° C | 87% | 1008.1 hPa | - | 4.92 m/s, 10° | - | - |
| 1778024013 | 11.67° C | 93% | 1007.8 hPa | - | 4.02 m/s, 10° | - | - |
| 1778023414 | 11.67° C | 93% | 1007.8 hPa | - | 4.02 m/s, 10° | - | - |
| 1778022814 | 11.67° C | 93% | 1007.8 hPa | - | 4.02 m/s, 10° | - | - |
| 1778022339 | 11.67° C | 93% | 1007.8 hPa | - | 4.02 m/s, 10° | - | - |
| 1778021615 | 11.67° C | 93% | 1007.8 hPa | - | 5.36 m/s, 10° | - | - |
| 1778021010 | 11.67° C | 93% | 1007.8 hPa | - | 5.36 m/s, 10° | - | - |
| 1778020412 | 11.67° C | 93% | 1007.8 hPa | - | 5.36 m/s, 10° | - | - |
| 1778019810 | 12.78° C | 93% | 1007.1 hPa | - | 4.02 m/s, 20° | - | - |
| 1778019211 | 12.78° C | 93% | 1007.1 hPa | - | 4.02 m/s, 20° | - | - |
| 1778018732 | 12.78° C | 93% | 1007.1 hPa | - | 4.02 m/s, 20° | - | - |
* Rain since midnight (hover to see other rain measurements)
** Current wind speed in m/s (hover to see current wind gust speed)